Showing default

GLOBALSTAR M001, 25162

Orbit data source: Space-Track

GLOBALSTAR M001, 25162 is a payload satellite owned by Globalstar (US) in LEO that was launched on Sat, 14 Feb 1998 UTC via a DELTA 7420-10C launch vehicle from the Air Force Eastern Test Range (AFETR). Payload-class satellites include a variety of spacecraft equipped with specific instruments for various scientific and technological missions. These include communications satellites like Starlink; space stations such as the ISS; scientific satellites like the Hubble; Earth observation satellites from companies like Planet Labs, Umbra, and HawkEye 360; GPS; miniature CubeSats for education and research; and military/defense satellites.

Loading next visibility...
Identifier
25162, 1998-008A
Orbit
LEO
Country
Flag of UnknownUnknown / GLOB
Related business
Manufacturer
SS/Loral
Mission
Non-operational Commercial Communications
Bus & Motor
LS-400, Unknown motor
Mass
450 kg wet, 380 kg dry
Launch date (UTC)
1998-02-14 (28 years ago)
Launch vehicle
DELTA 7420-10C
Launch site
Air Force Eastern Test Range (AFETR)
Object type
Payload
Rocket body
Debris
Shape & HBR
Box + 2 Pan, 6.0 m
Radar Cross Section
5.587 m², Large (>1 m²)

Expand to show TLE details & history
Last TLE update: 21 hours ago

TLE from 21 hours ago
0 GLOBALSTAR M001
1 25162U 98008A   25305.27173764 -.00000087  00000-0  72172-4 0  9992
2 25162  52.0040 294.2255 0001204 172.6081 290.2655 12.38219531260697
Epoch: 2025-11-01T06:31Z
TLE epoch observation values (Epoch: 2025-11-01T06:31:18.132Z)
Latitude
50.3342°
Longitude
-94.03569°
Altitude
1,519.752 km
Speed
7.111 km/s
True Right ascension
02h 58m 22s
True Declination
50° 10' 53"
Sunlit
Object was in full shadow at epoch
Visualization orbit readout
Latitude
Unknown
Longitude
Unknown
Altitude
Unknown
Speed
Unknown
Apparent Right ascension
Unknown
Apparent Declination
Unknown
Sunlit
N/A
Visualization observer readout
Local Sidereal Time
23:04:29
Azimuth
Unknown
Elevation
Unknown
Doppler factor
Unknown
Orbital elements
Apogee altitude
1,515.497 km
Perigee altitude
1,513.596 km
Semi-major axis
7,892.684 km
Eccentricity
0.00012
Inclination
52.004°
RAAN
294.2255°
Arg. of periapsis
172.6081°
True anomaly
290.25256°
Mean anomaly
290.2655°
Eccentric anomaly
290.25903°
Mean motion
3.09532 °/min
Orbital period
116.3 mins
BSTAR
0.000072172
Loading maneuver chart data...
Computing Atmospheric mass density...
Loading historical data...
Loading historical data...
Loading historical data...
Loading historical data...
Loading historical data...
Loading historical data...
Loading historical data...

Documentation

Showing up to 5 results
|